• In Netherlands
  • List of Countries
  • For 7 days
  • Water Temperature
  • Satellite Maps
  • Weather Map
  • Weather Widgets
  • user-avatar
    Login

    Hourly Weather Wlora

    Today, 25 February, Saturday

    Time Temperature Precipitation Wind Pressure Humidity
    00:00 +11°C° 0 mm 11 mps 761 mmHg 85%
    01:00 +12°C° 0 mm 10 mps 761 mmHg 86%
    02:00 +12°C° 0.2 mm 10 mps 761 mmHg 85%
    03:00 +12°C° 0.2 mm 10 mps 761 mmHg 85%
    04:00 +12°C° 0.2 mm 10 mps 761 mmHg 84%
    05:00 +12°C° 0.3 mm 10 mps 761 mmHg 84%
    06:00 +12°C° 0.3 mm 10 mps 761 mmHg 84%
    07:00 +12°C° 0.3 mm 10 mps 761 mmHg 83%
    08:00 +12°C° 0.2 mm 10 mps 761 mmHg 80%
    09:00 +13°C° 0.2 mm 10 mps 761 mmHg 77%
    10:00 +15°C° 0.2 mm 9 mps 761 mmHg 73%
    11:00 +16°C° 0.1 mm 9 mps 761 mmHg 70%
    12:00 +16°C° 0.1 mm 8 mps 761 mmHg 66%
    13:00 +17°C° 0.1 mm 8 mps 761 mmHg 62%
    14:00 +17°C° 0.2 mm 7 mps 761 mmHg 64%
    15:00 +17°C° 0.2 mm 6 mps 761 mmHg 66%
    16:00 +17°C° 0.2 mm 6 mps 761 mmHg 68%
    17:00 +16°C° 0.2 mm 5 mps 761 mmHg 70%
    18:00 +15°C° 0.2 mm 5 mps 761 mmHg 72%
    19:00 +14°C° 0.2 mm 4 mps 761 mmHg 74%
    20:00 +14°C° 0.4 mm 4 mps 762 mmHg 74%
    21:00 +13°C° 0.4 mm 4 mps 762 mmHg 73%
    22:00 +13°C° 0.4 mm 4 mps 762 mmHg 73%
    23:00 +13°C° 0.4 mm 4 mps 763 mmHg 74%

    Tomorrow, 26 February, Sunday

    Time Temperature Precipitation Wind Pressure Humidity
    00:00 +13°C° 0.4 mm 4 mps 763 mmHg 75%
    01:00 +12°C° 0.4 mm 5 mps 763 mmHg 77%
    02:00 +12°C° 0.3 mm 5 mps 763 mmHg 77%
    03:00 +12°C° 0.3 mm 5 mps 763 mmHg 78%
    04:00 +12°C° 0.3 mm 5 mps 762 mmHg 79%
    05:00 +12°C° 0 mm 5 mps 763 mmHg 79%
    06:00 +12°C° 0 mm 5 mps 763 mmHg 79%
    07:00 +12°C° 0 mm 5 mps 763 mmHg 78%
    08:00 +14°C° 0 mm 5 mps 763 mmHg 74%
    09:00 +15°C° 0 mm 5 mps 763 mmHg 69%
    10:00 +18°C° 0 mm 4 mps 763 mmHg 64%
    11:00 +17°C° 0 mm 5 mps 763 mmHg 61%
    12:00 +19°C° 0 mm 5 mps 763 mmHg 57%
    13:00 +19°C° 0 mm 5 mps 763 mmHg 54%
    14:00 +19°C° 0 mm 5 mps 763 mmHg 59%
    15:00 +18°C° 0 mm 4 mps 763 mmHg 64%
    16:00 +17°C° 0 mm 4 mps 763 mmHg 69%
    17:00 +15°C° 0.1 mm 4 mps 763 mmHg 73%
    18:00 +14°C° 0.1 mm 4 mps 763 mmHg 78%
    19:00 +14°C° 0.1 mm 4 mps 763 mmHg 82%
    20:00 +13°C° 0 mm 3 mps 763 mmHg 83%
    21:00 +13°C° 0 mm 3 mps 763 mmHg 84%
    22:00 +14°C° 0 mm 2 mps 763 mmHg 86%
    23:00 +12°C° 0 mm 3 mps 763 mmHg 86%

    Day after tomorrow, 27 February, Monday

    Time Temperature Precipitation Wind Pressure Humidity
    00:00 +12°C° 0 mm 3 mps 763 mmHg 87%
    01:00 +12°C° 0 mm 3 mps 763 mmHg 88%
    02:00 +12°C° 0 mm 4 mps 763 mmHg 88%
    03:00 +11°C° 0 mm 4 mps 762 mmHg 87%
    04:00 +11°C° 0 mm 4 mps 762 mmHg 87%
    05:00 +11°C° 0 mm 4 mps 762 mmHg 86%
    06:00 +11°C° 0 mm 3 mps 762 mmHg 84%
    07:00 +11°C° 0 mm 3 mps 762 mmHg 82%
    08:00 +13°C° 0 mm 3 mps 763 mmHg 74%
    09:00 +16°C° 0 mm 2 mps 763 mmHg 67%
    10:00 +19°C° 0 mm 1 mps 763 mmHg 60%
    11:00 +18°C° 0 mm 2 mps 763 mmHg 58%
    12:00 +19°C° 0 mm 2 mps 762 mmHg 57%
    13:00 +19°C° 0 mm 2 mps 762 mmHg 55%
    14:00 +19°C° 0 mm 2 mps 762 mmHg 58%
    15:00 +18°C° 0 mm 2 mps 762 mmHg 61%
    16:00 +18°C° 0 mm 2 mps 762 mmHg 64%
    17:00 +16°C° 0 mm 1 mps 762 mmHg 71%
    18:00 +15°C° 0 mm 1 mps 762 mmHg 78%
    19:00 +13°C° 0 mm 1 mps 762 mmHg 85%
    20:00 +13°C° 0 mm 1 mps 762 mmHg 85%
    21:00 +13°C° 0 mm 1 mps 762 mmHg 85%
    22:00 +12°C° 0 mm 1 mps 762 mmHg 85%
    23:00 +12°C° 0 mm 1 mps 762 mmHg 85%

    28 February, Tuesday

    Time Temperature Precipitation Wind Pressure Humidity
    00:00 +12°C° 0 mm 1 mps 762 mmHg 85%
    01:00 +12°C° 0 mm 1 mps 762 mmHg 85%
    02:00 +11°C° 0 mm 1 mps 762 mmHg 85%
    03:00 +11°C° 0 mm 1 mps 762 mmHg 86%
    04:00 +11°C° 0 mm 1 mps 762 mmHg 86%
    05:00 +10°C° 0 mm 2 mps 762 mmHg 85%
    06:00 +10°C° 0 mm 2 mps 762 mmHg 85%
    07:00 +12°C° 0 mm 2 mps 762 mmHg 84%
    08:00 +13°C° 0 mm 3 mps 762 mmHg 77%
    09:00 +16°C° 0 mm 3 mps 762 mmHg 69%
    10:00 +18°C° 0 mm 4 mps 762 mmHg 61%
    11:00 +18°C° 0 mm 4 mps 762 mmHg 61%
    12:00 +17°C° 0 mm 5 mps 761 mmHg 61%
    13:00 +19°C° 0 mm 6 mps 761 mmHg 61%
    14:00 +17°C° 0 mm 6 mps 761 mmHg 63%
    15:00 +17°C° 0 mm 6 mps 761 mmHg 66%
    16:00 +16°C° 0 mm 6 mps 760 mmHg 69%
    17:00 +15°C° 0 mm 6 mps 761 mmHg 75%
    18:00 +14°C° 0 mm 6 mps 761 mmHg 81%
    19:00 +13°C° 0 mm 6 mps 761 mmHg 87%
    20:00 +11°C° 0 mm 6 mps 761 mmHg 88%
    21:00 +11°C° 0 mm 7 mps 761 mmHg 88%
    22:00 +11°C° 0 mm 7 mps 761 mmHg 89%
    23:00 +11°C° 0 mm 7 mps 761 mmHg 90%

    1 March, Wednesday

    Time Temperature Precipitation Wind Pressure Humidity
    00:00 +11°C° 0 mm 7 mps 761 mmHg 90%
    01:00 +11°C° 0 mm 6 mps 760 mmHg 91%
    02:00 +11°C° 0 mm 6 mps 760 mmHg 91%
    03:00 +11°C° 0 mm 6 mps 760 mmHg 91%
    04:00 +11°C° 0 mm 6 mps 760 mmHg 91%
    05:00 +12°C° 0 mm 5 mps 760 mmHg 91%
    06:00 +12°C° 0 mm 5 mps 760 mmHg 90%
    07:00 +12°C° 0 mm 5 mps 761 mmHg 90%
    08:00 +13°C° 0 mm 5 mps 761 mmHg 84%
    09:00 +14°C° 0 mm 5 mps 761 mmHg 78%
    10:00 +16°C° 0 mm 5 mps 761 mmHg 72%
    11:00 +16°C° 0 mm 5 mps 761 mmHg 71%
    12:00 +16°C° 0 mm 5 mps 761 mmHg 69%
    13:00 +17°C° 0 mm 4 mps 761 mmHg 68%
    14:00 +17°C° 0.1 mm 4 mps 761 mmHg 70%
    15:00 +17°C° 0.1 mm 3 mps 761 mmHg 72%
    16:00 +16°C° 0.1 mm 3 mps 761 mmHg 74%
    17:00 +14°C° 0 mm 3 mps 762 mmHg 78%
    18:00 +13°C° 0 mm 3 mps 762 mmHg 83%
    19:00 +11°C° 0 mm 3 mps 763 mmHg 87%
    20:00 +11°C° 0 mm 3 mps 763 mmHg 86%
    21:00 +10°C° 0 mm 4 mps 764 mmHg 86%
    22:00 +10°C° 0 mm 4 mps 764 mmHg 85%
    23:00 +10°C° 0 mm 4 mps 764 mmHg 84%

    2 March, Thursday

    Time Temperature Precipitation Wind Pressure Humidity
    00:00 +9°C° 0 mm 3 mps 764 mmHg 83%
    01:00 +9°C° 0 mm 3 mps 764 mmHg 81%
    02:00 +9°C° 0 mm 3 mps 764 mmHg 78%
    03:00 +9°C° 0 mm 2 mps 764 mmHg 75%
    04:00 +9°C° 0 mm 2 mps 764 mmHg 72%
    05:00 +9°C° 0 mm 2 mps 764 mmHg 70%
    06:00 +9°C° 0 mm 2 mps 764 mmHg 67%
    07:00 +9°C° 0 mm 2 mps 764 mmHg 65%
    08:00 +12°C° 0 mm 2 mps 764 mmHg 57%
    09:00 +15°C° 0 mm 1 mps 765 mmHg 49%
    10:00 +18°C° 0 mm 1 mps 765 mmHg 42%
    11:00 +18°C° 0 mm 1 mps 764 mmHg 41%
    12:00 +18°C° 0 mm 2 mps 764 mmHg 40%
    13:00 +18°C° 0 mm 2 mps 764 mmHg 39%
    14:00 +18°C° 0 mm 2 mps 764 mmHg 42%
    15:00 +17°C° 0 mm 2 mps 764 mmHg 46%
    16:00 +17°C° 0 mm 3 mps 764 mmHg 50%
    17:00 +15°C° 0 mm 2 mps 764 mmHg 58%
    18:00 +13°C° 0 mm 2 mps 764 mmHg 66%
    19:00 +12°C° 0 mm 2 mps 765 mmHg 74%
    20:00 +10°C° 0 mm 2 mps 765 mmHg 75%
    21:00 +10°C° 0 mm 2 mps 765 mmHg 76%
    22:00 +11°C° 0 mm 1 mps 765 mmHg 76%
    23:00 +10°C° 0 mm 1 mps 765 mmHg 75%
    Show more